Regional Weather Roundup
Issued by NWS Cleveland, OH

Home | Current Version | Previous Version | Text Only | Print | Product List | Glossary Off
Versions: 1 2 3 4 5 6 7 8 9 10 11 12 13 14 15 16 17 18 19 20 21 22 23 24 25 26 27 28 29 30 31 32 33 34 35 36 37 38 39 40 41 42 43 44 45 46 47 48 49 50

000
ASUS41 KCLE 030712
RWRCLE
OHIO REGIONAL WEATHER ROUNDUP
NATIONAL WEATHER SERVICE WILMINGTON, OH
200 AM EST SAT DEC 03 2016

NOTE: "FAIR" INDICATES FEW OR NO CLOUDS BELOW 12,000 FEET WITH NO
SIGNIFICANT WEATHER AND/OR OBSTRUCTIONS TO VISIBILITY.

OHZ001>008-015>018-024>027-034-035-043-044-030800-
   NORTHWEST OHIO

CITY           SKY/WX    TMP DP  RH WIND       PRES   REMARKS
DEFIANCE       CLOUDY    35  27  72 CALM      30.29S
FINDLAY        FAIR      29  24  82 W6        30.27S WCI  23
TOLEDO EXPRESS CLOUDY    35  30  82 NW3       30.27S
TOLEDO EXEC    CLOUDY    36  29  75 W7        30.28R
LIMA           CLOUDY    35  30  82 W6        30.28R
$$

OHZ009>014-019>023-028>033-038-089-030800-
   NORTHEAST OHIO

CITY           SKY/WX    TMP DP  RH WIND       PRES   REMARKS
CLE-HOPKINS    CLOUDY    38  28  67 W9        30.26R
CLE-LAKEFRONT  CLOUDY    40  31  70 W14       30.23R
CUY CO. ARPT   NOT AVBL
LORAIN-ELYRIA  CLOUDY    36  27  69 NW8       30.25S
ASHTABULA      CLOUDY    38  32  79 W12       30.19R
AKRON-CANTON   CLOUDY    36  28  73 NW9       30.22S
WOOSTER        CLOUDY    34  28  79 NW10      30.24R WCI  26
MANSFIELD      CLOUDY    34  28  79 W5        30.23S WCI  30
YOUNGSTOWN     CLOUDY    36  29  75 W9        30.18F
$$

OHZ042-051>053-060>062-070>072-077>081-030800-
  SOUTHWEST OHIO

CITY           SKY/WX    TMP DP  RH WIND       PRES   REMARKS
CINC-COVINGTON NOT AVBL
CINC-LUNKEN    CLOUDY    38  36  92 SW3       30.34S
HAMILTON       CLOUDY    38  34  85 W3        30.33S
DAYTON         CLOUDY    36  30  79 W5        30.30R
WRIGHT-PAT AFB CLOUDY    37  31  77 W3        30.29S
DAYTON GENERAL CLOUDY    37  30  75 SW3       30.29S
WILMINGTON     NOT AVBL
$$

OHZ036-037-039>041-045>050-054>059-063>069-073>076-082>088-030800-
  CENTRAL AND SOUTHEAST OHIO

CITY           SKY/WX    TMP DP  RH WIND       PRES   REMARKS
COLUMBUS       MOCLDY    34  29  82 NW5       30.28S WCI  30
OSU AIRPORT    CLOUDY    35  30  82 W3        30.29R
BOLTON FIELD   CLOUDY    36  32  86 W3        30.29R
RICKENBACK AFB CLOUDY    37  32  83 NW5       30.29R
NEWARK         NOT AVBL
MARION         FAIR      30  26  85 W6        30.27S WCI  24
LANCASTER      CLOUDY    37  32  82 W3        30.29S
ZANESVILLE     MOCLDY    36  25  64 NW9       30.27R
NEW PHILLY     CLOUDY    35  29  78 VRB3      30.26R
$$




USA.gov is the U.S. government's official web portal to all federal, state and local government web resources and services.